QPF
0.00 0.00 0.00 0.00 0.00 0.00 0.00 0.01 0.00 0.01 0.01 0.00 0.00 0.00 0.00 0.01 0.02 0.06 0.08 0.08 0.07 0.08 0.10 0.11 0.11 0.10 0.12 0.14 0.15 0.14 0.14 0.15 0.15 0.14 0.13 0.15 0.16 0.15 0.13 0.14 0.14 0.15 0.13 0.11 0.09 0.08 0.08 0.06 0.06
0.00 0.00 0.00 0.00 0.00 0.01 0.00 0.01 0.01 0.00 0.00 0.00 0.00 0.00 0.00 0.00 0.01 0.03 0.04 0.05 0.05 0.06 0.08 0.09 0.09 0.09 0.10 0.11 0.11 0.11 0.09 0.08 0.09 0.12 0.15 0.15 0.14 0.13 0.13 0.13 0.13 0.12 0.10 0.10 0.08 0.05 0.04 0.03 0.03
0.00 0.00 0.00 0.00 0.00 0.00 0.00 0.00 0.01 0.00 0.00 0.00 0.00 0.00 0.00 0.01 0.01 0.02 0.03 0.03 0.03 0.04 0.06 0.08 0.08 0.07 0.06 0.06 0.08 0.09 0.08 0.07 0.08 0.12 0.14 0.13 0.12 0.12 0.11 0.11 0.12 0.10 0.09 0.08 0.06 0.04 0.02 0.02 0.03
0.00 0.00 0.00 0.00 0.00 0.00 0.00 0.00 0.00 0.00 0.00 0.00 0.00 0.00 0.01 0.01 0.01 0.01 0.02 0.01 0.01 0.03 0.04 0.05 0.04 0.04 0.04 0.05 0.07 0.08 0.07 0.08 0.09 0.12 0.13 0.13 0.14 0.13 0.11 0.11 0.10 0.08 0.09 0.06 0.04 0.03 0.03 0.04 0.03
0.00 0.00 0.00 0.00 0.00 0.00 0.00 0.00 0.00 0.00 0.00 0.00 0.00 0.01 0.01 0.01 0.01 0.01 0.01 0.01 0.01 0.02 0.03 0.03 0.03 0.03 0.04 0.04 0.05 0.06 0.06 0.06 0.08 0.09 0.10 0.12 0.13 0.13 0.11 0.09 0.07 0.06 0.06 0.05 0.04 0.04 0.05 0.04 0.02
0.00 0.00 0.00 0.00 0.00 0.00 0.00 0.00 0.00 0.00 0.00 0.00 0.00 0.00 0.01 0.01 0.01 0.01 0.01 0.01 0.01 0.01 0.02 0.03 0.03 0.03 0.03 0.04 0.04 0.06 0.06 0.05 0.06 0.07 0.08 0.08 0.09 0.10 0.07 0.07 0.06 0.06 0.06 0.04 0.04 0.04 0.03 0.03 0.02
0.00 0.00 0.00 0.00 0.00 0.00 0.00 0.00 0.00 0.00 0.00 0.00 0.01 0.01 0.01 0.01 0.01 0.01 0.01 0.01 0.01 0.01 0.01 0.01 0.02 0.03 0.04 0.04 0.04 0.04 0.05 0.05 0.05 0.07 0.08 0.09 0.09 0.09 0.06 0.07 0.08 0.07 0.06 0.04 0.04 0.05 0.04 0.03 0.03
0.00 0.00 0.00 0.00 0.00 0.00 0.00 0.00 0.00 0.00 0.00 0.00 0.00 0.01 0.01 0.01 0.01 0.01 0.01 0.01 0.01 0.01 0.01 0.01 0.02 0.02 0.03 0.04 0.04 0.04 0.05 0.05 0.05 0.06 0.07 0.08 0.08 0.08 0.06 0.05 0.07 0.06 0.07 0.05 0.04 0.03 0.03 0.04 0.04
0.00 0.00 0.00 0.00 0.00 0.00 0.00 0.00 0.00 0.00 0.00 0.00 0.00 0.01 0.00 0.01 0.01 0.02 0.01 0.01 0.01 0.01 0.01 0.01 0.01 0.02 0.03 0.03 0.03 0.04 0.04 0.05 0.05 0.05 0.04 0.05 0.06 0.06 0.05 0.04 0.05 0.04 0.05 0.05 0.05 0.04 0.04 0.03 0.04
0.00 0.00 0.00 0.00 0.00 0.00 0.00 0.00 0.00 0.00 0.00 0.00 0.01 0.01 0.01 0.01 0.01 0.01 0.01 0.00 0.00 0.01 0.01 0.02 0.02 0.03 0.04 0.03 0.03 0.04 0.03 0.04 0.04 0.05 0.05 0.05 0.07 0.07 0.04 0.05 0.05 0.04 0.05 0.04 0.05 0.03 0.03 0.02 0.02
0.00 0.00 0.00 0.00 0.00 0.00 0.00 0.00 0.00 0.00 0.00 0.00 0.00 0.00 0.01 0.01 0.01 0.01 0.01 0.01 0.01 0.02 0.03 0.03 0.03 0.03 0.04 0.03 0.03 0.03 0.03 0.03 0.07 0.08 0.06 0.07 0.08 0.06 0.05 0.04 0.03 0.03 0.03 0.03 0.02 0.01 0.01 0.01 0.03
0.00 0.00 0.00 0.00 0.00 0.00 0.00 0.00 0.00 0.00 0.00 0.00 0.00 0.00 0.02 0.10 0.07 0.02 0.01 0.01 0.01 0.02 0.02 0.03 0.04 0.03 0.03 0.02 0.02 0.02 0.02 0.05 0.13 0.10 0.06 0.06 0.07 0.06 0.05 0.04 0.03 0.02 0.03 0.04 0.02 0.02 0.02 0.02 0.02
0.00 0.00 0.00 0.00 0.00 0.00 0.00 0.00 0.00 0.00 0.00 0.00 0.00 0.00 0.02 0.08 0.06 0.02 0.01 0.00 0.00 0.01 0.01 0.01 0.02 0.05 0.05 0.03 0.03 0.02 0.04 0.09 0.12 0.08 0.07 0.05 0.05 0.05 0.05 0.05 0.04 0.02 0.02 0.03 0.03 0.02 0.02 0.03 0.02
0.00 0.00 0.00 0.00 0.00 0.00 0.00 0.00 0.00 0.00 0.00 0.00 0.00 0.00 0.00 0.01 0.01 0.01 0.00 0.00 0.00 0.00 0.00 0.00 0.01 0.02 0.03 0.04 0.04 0.04 0.05 0.09 0.09 0.08 0.07 0.06 0.06 0.06 0.06 0.06 0.06 0.04 0.04 0.04 0.03 0.02 0.02 0.03 0.03
0.00 0.00 0.00 0.00 0.00 0.00 0.00 0.00 0.00 0.00 0.00 0.00 0.00 0.00 0.00 0.00 0.00 0.00 0.00 0.00 0.00 0.00 0.00 0.00 0.00 0.01 0.02 0.04 0.05 0.05 0.06 0.06 0.07 0.08 0.07 0.06 0.06 0.07 0.07 0.06 0.07 0.07 0.04 0.04 0.05 0.04 0.04 0.04 0.04
0.00 0.00 0.00 0.00 0.00 0.00 0.00 0.00 0.00 0.00 0.00 0.00 0.00 0.00 0.00 0.00 0.00 0.00 0.00 0.00 0.00 0.00 0.00 0.00 0.00 0.01 0.02 0.04 0.04 0.03 0.04 0.05 0.06 0.06 0.05 0.06 0.07 0.06 0.06 0.06 0.07 0.08 0.06 0.06 0.08 0.07 0.05 0.05 0.05
0.00 0.00 0.00 0.00 0.00 0.00 0.00 0.00 0.00 0.00 0.00 0.00 0.00 0.00 0.00 0.00 0.00 0.00 0.00 0.00 0.00 0.00 0.00 0.01 0.01 0.01 0.03 0.03 0.03 0.02 0.02 0.03 0.04 0.04 0.05 0.05 0.05 0.05 0.05 0.07 0.07 0.06 0.07 0.08 0.07 0.07 0.07 0.07 0.06
0.00 0.00 0.00 0.00 0.00 0.00 0.00 0.00 0.00 0.00 0.00 0.00 0.00 0.00 0.00 0.00 0.00 0.00 0.00 0.00 0.00 0.00 0.00 0.01 0.01 0.02 0.02 0.03 0.02 0.01 0.02 0.02 0.03 0.03 0.05 0.06 0.04 0.04 0.05 0.07 0.08 0.06 0.08 0.10 0.08 0.09 0.10 0.09 0.08
0.00 0.00 0.00 0.00 0.00 0.00 0.00 0.00 0.00 0.00 0.00 0.00 0.00 0.00 0.00 0.00 0.00 0.00 0.00 0.00 0.00 0.00 0.00 0.01 0.01 0.01 0.02 0.02 0.02 0.03 0.04 0.03 0.02 0.03 0.03 0.04 0.03 0.04 0.05 0.05 0.08 0.09 0.08 0.09 0.08 0.07 0.09 0.08 0.07
0.00 0.00 0.00 0.00 0.00 0.00 0.00 0.00 0.00 0.00 0.00 0.00 0.00 0.00 0.00 0.00 0.00 0.00 0.00 0.00 0.00 0.00 0.00 0.01 0.01 0.01 0.01 0.01 0.01 0.02 0.02 0.02 0.02 0.02 0.02 0.03 0.04 0.04 0.05 0.06 0.07 0.09 0.09 0.08 0.08 0.09 0.09 0.07 0.07
0.00 0.00 0.00 0.00 0.00 0.00 0.00 0.00 0.00 0.00 0.00 0.00 0.00 0.00 0.00 0.00 0.00 0.00 0.00 0.00 0.00 0.00 0.01 0.00 0.00 0.01 0.01 0.01 0.01 0.01 0.02 0.03 0.03 0.04 0.04 0.03 0.03 0.03 0.04 0.04 0.05 0.08 0.08 0.08 0.10 0.10 0.11 0.09 0.08
0.00 0.00 0.00 0.00 0.00 0.00 0.00 0.00 0.00 0.00 0.00 0.00 0.00 0.00 0.00 0.00 0.00 0.00 0.00 0.00 0.00 0.00 0.00 0.00 0.00 0.01 0.01 0.01 0.01 0.01 0.03 0.03 0.04 0.04 0.04 0.04 0.04 0.03 0.03 0.04 0.05 0.07 0.05 0.07 0.08 0.07 0.09 0.08 0.08
0.00 0.00 0.00 0.00 0.00 0.00 0.00 0.00 0.00 0.00 0.00 0.00 0.00 0.00 0.00 0.00 0.00 0.00 0.00 0.00 0.00 0.00 0.00 0.00 0.00 0.00 0.01 0.02 0.02 0.02 0.02 0.03 0.03 0.03 0.04 0.05 0.04 0.02 0.02 0.02 0.04 0.06 0.06 0.06 0.06 0.06 0.06 0.07 0.07
0.00 0.00 0.00 0.00 0.00 0.00 0.00 0.00 0.00 0.00 0.00 0.00 0.00 0.00 0.00 0.00 0.00 0.00 0.00 0.00 0.00 0.00 0.00 0.00 0.00 0.00 0.01 0.02 0.02 0.02 0.02 0.02 0.03 0.03 0.03 0.04 0.03 0.03 0.02 0.03 0.05 0.06 0.06 0.06 0.06 0.06 0.05 0.05 0.06
0.00 0.00 0.00 0.00 0.00 0.00 0.00 0.00 0.00 0.00 0.00 0.00 0.00 0.00 0.00 0.00 0.00 0.00 0.00 0.00 0.00 0.00 0.00 0.00 0.00 0.00 0.01 0.02 0.02 0.02 0.02 0.02 0.03 0.03 0.02 0.02 0.02 0.03 0.04 0.03 0.06 0.05 0.06 0.06 0.05 0.05 0.05 0.05 0.06
0.00 0.00 0.00 0.00 0.00 0.00 0.00 0.00 0.00 0.00 0.00 0.00 0.00 0.00 0.00 0.00 0.00 0.00 0.00 0.00 0.00 0.00 0.00 0.00 0.01 0.01 0.01 0.01 0.01 0.02 0.02 0.03 0.04 0.04 0.02 0.02 0.02 0.03 0.04 0.04 0.04 0.05 0.05 0.05 0.06 0.05 0.06 0.05 0.05
0.00 0.00 0.00 0.00 0.00 0.00 0.00 0.00 0.00 0.00 0.00 0.00 0.00 0.00 0.00 0.00 0.00 0.00 0.00 0.00 0.00 0.00 0.00 0.00 0.01 0.01 0.01 0.01 0.02 0.02 0.02 0.02 0.02 0.02 0.02 0.01 0.02 0.02 0.02 0.03 0.04 0.05 0.05 0.06 0.06 0.05 0.07 0.08 0.07
0.00 0.00 0.00 0.00 0.00 0.00 0.00 0.00 0.00 0.00 0.00 0.00 0.00 0.00 0.00 0.00 0.00 0.00 0.00 0.00 0.00 0.00 0.00 0.00 0.00 0.01 0.01 0.01 0.01 0.02 0.02 0.02 0.02 0.02 0.03 0.02 0.02 0.02 0.02 0.03 0.04 0.05 0.06 0.06 0.06 0.05 0.07 0.08 0.07
0.00 0.00 0.00 0.00 0.00 0.00 0.00 0.00 0.00 0.00 0.00 0.00 0.00 0.00 0.00 0.00 0.00 0.00 0.00 0.00 0.00 0.00 0.00 0.00 0.00 0.01 0.01 0.01 0.01 0.01 0.02 0.02 0.02 0.03 0.03 0.02 0.02 0.02 0.03 0.04 0.04 0.04 0.04 0.05 0.06 0.05 0.05 0.06 0.06
0.00 0.00 0.00 0.00 0.00 0.00 0.00 0.00 0.00 0.00 0.00 0.00 0.00 0.00 0.00 0.00 0.00 0.00 0.00 0.00 0.00 0.00 0.00 0.00 0.01 0.02 0.01 0.01 0.02 0.02 0.03 0.03 0.03 0.04 0.03 0.03 0.02 0.03 0.04 0.04 0.04 0.03 0.03 0.04 0.06 0.04 0.04 0.05 0.05
MSLP
1003.85 1004.44 1005.39 1006.60 1007.91 1009.19 1010.31 1011.18 1011.77 1012.09 1012.22 1012.25 1012.25 1012.28 1012.37 1012.52 1012.69 1012.85 1012.95 1012.99 1012.98 1012.93 1012.87 1012.82 1012.80 1012.79 1012.78 1012.74 1012.65 1012.51 1012.33 1012.15 1012.01 1011.96 1012.00 1012.14 1012.35 1012.60 1012.85 1013.06 1013.22 1013.34 1013.45 1013.58 1013.75 1013.99 1014.30 1014.66 1015.03
1004.13 1004.98 1006.15 1007.51 1008.90 1010.17 1011.20 1011.92 1012.33 1012.47 1012.44 1012.33 1012.25 1012.24 1012.32 1012.48 1012.68 1012.87 1013.00 1013.08 1013.10 1013.08 1013.07 1013.08 1013.12 1013.18 1013.23 1013.24 1013.20 1013.10 1012.95 1012.80 1012.68 1012.63 1012.67 1012.78 1012.96 1013.16 1013.35 1013.50 1013.61 1013.69 1013.77 1013.89 1014.07 1014.33 1014.66 1015.03 1015.41
1004.62 1005.68 1007.01 1008.46 1009.86 1011.05 1011.95 1012.49 1012.71 1012.68 1012.52 1012.33 1012.20 1012.18 1012.28 1012.46 1012.68 1012.89 1013.03 1013.12 1013.15 1013.16 1013.18 1013.24 1013.35 1013.47 1013.60 1013.69 1013.71 1013.67 1013.58 1013.46 1013.36 1013.31 1013.32 1013.40 1013.52 1013.66 1013.79 1013.88 1013.95 1014.01 1014.09 1014.23 1014.44 1014.73 1015.08 1015.46 1015.83
1005.27 1006.48 1007.90 1009.36 1010.69 1011.76 1012.48 1012.84 1012.89 1012.73 1012.48 1012.25 1012.12 1012.13 1012.27 1012.48 1012.72 1012.93 1013.07 1013.14 1013.17 1013.18 1013.23 1013.33 1013.50 1013.70 1013.90 1014.07 1014.18 1014.20 1014.16 1014.08 1014.00 1013.95 1013.94 1013.98 1014.05 1014.14 1014.21 1014.27 1014.32 1014.38 1014.49 1014.66 1014.91 1015.23 1015.59 1015.95 1016.30
1006.00 1007.29 1008.72 1010.11 1011.31 1012.21 1012.75 1012.94 1012.86 1012.62 1012.34 1012.13 1012.05 1012.12 1012.32 1012.57 1012.83 1013.03 1013.15 1013.19 1013.19 1013.20 1013.27 1013.40 1013.62 1013.89 1014.16 1014.40 1014.58 1014.66 1014.67 1014.63 1014.56 1014.51 1014.49 1014.51 1014.55 1014.60 1014.65 1014.69 1014.75 1014.84 1014.98 1015.19 1015.47 1015.81 1016.16 1016.50 1016.79
1006.73 1008.02 1009.38 1010.64 1011.67 1012.38 1012.74 1012.80 1012.64 1012.38 1012.14 1012.00 1012.02 1012.19 1012.45 1012.76 1013.02 1013.20 1013.29 1013.29 1013.27 1013.27 1013.33 1013.50 1013.75 1014.07 1014.39 1014.68 1014.90 1015.03 1015.07 1015.05 1015.01 1014.97 1014.95 1014.97 1015.00 1015.05 1015.10 1015.17 1015.25 1015.37 1015.55 1015.79 1016.09 1016.42 1016.75 1017.04 1017.27
1007.40 1008.61 1009.83 1010.91 1011.74 1012.26 1012.48 1012.45 1012.27 1012.06 1011.91 1011.90 1012.05 1012.33 1012.68 1013.03 1013.30 1013.46 1013.51 1013.48 1013.42 1013.40 1013.47 1013.65 1013.92 1014.26 1014.61 1014.92 1015.15 1015.29 1015.35 1015.35 1015.33 1015.31 1015.31 1015.35 1015.41 1015.48 1015.56 1015.66 1015.77 1015.93 1016.14 1016.39 1016.69 1017.00 1017.28 1017.51 1017.67
1007.97 1009.04 1010.07 1010.94 1011.57 1011.92 1012.03 1011.96 1011.82 1011.70 1011.70 1011.85 1012.14 1012.54 1012.97 1013.36 1013.63 1013.77 1013.79 1013.72 1013.65 1013.62 1013.68 1013.86 1014.14 1014.48 1014.82 1015.11 1015.33 1015.46 1015.52 1015.53 1015.52 1015.54 1015.58 1015.65 1015.75 1015.87 1015.99 1016.12 1016.27 1016.45 1016.67 1016.92 1017.20 1017.47 1017.71 1017.88 1017.97
1008.45 1009.34 1010.16 1010.81 1011.24 1011.45 1011.48 1011.41 1011.34 1011.35 1011.51 1011.83 1012.27 1012.78 1013.28 1013.70 1013.97 1014.09 1014.08 1014.00 1013.91 1013.88 1013.95 1014.13 1014.40 1014.72 1015.02 1015.28 1015.47 1015.57 1015.61 1015.62 1015.63 1015.68 1015.77 1015.90 1016.05 1016.21 1016.37 1016.53 1016.70 1016.88 1017.09 1017.33 1017.57 1017.81 1018.00 1018.13 1018.18
1008.86 1009.57 1010.16 1010.60 1010.85 1010.94 1010.93 1010.89 1010.90 1011.05 1011.36 1011.83 1012.40 1013.00 1013.55 1013.98 1014.25 1014.36 1014.34 1014.25 1014.17 1014.16 1014.24 1014.42 1014.68 1014.96 1015.23 1015.44 1015.57 1015.63 1015.65 1015.66 1015.70 1015.79 1015.92 1016.10 1016.31 1016.51 1016.70 1016.87 1017.04 1017.21 1017.40 1017.60 1017.81 1018.02 1018.18 1018.28 1018.32
1009.27 1009.78 1010.18 1010.42 1010.52 1010.51 1010.47 1010.46 1010.56 1010.82 1011.26 1011.83 1012.49 1013.14 1013.72 1014.15 1014.42 1014.52 1014.51 1014.44 1014.39 1014.40 1014.51 1014.70 1014.95 1015.20 1015.43 1015.58 1015.67 1015.69 1015.69 1015.71 1015.77 1015.89 1016.07 1016.30 1016.54 1016.78 1016.98 1017.15 1017.30 1017.44 1017.60 1017.77 1017.95 1018.14 1018.29 1018.39 1018.45
1009.70 1010.06 1010.27 1010.35 1010.33 1010.24 1010.17 1010.18 1010.34 1010.68 1011.18 1011.82 1012.51 1013.18 1013.75 1014.18 1014.44 1014.55 1014.56 1014.53 1014.53 1014.59 1014.73 1014.94 1015.19 1015.42 1015.61 1015.73 1015.77 1015.77 1015.76 1015.78 1015.87 1016.03 1016.25 1016.51 1016.78 1017.03 1017.23 1017.39 1017.51 1017.62 1017.74 1017.88 1018.05 1018.22 1018.39 1018.52 1018.60
1010.20 1010.42 1010.50 1010.45 1010.33 1010.17 1010.07 1010.08 1010.26 1010.61 1011.13 1011.77 1012.44 1013.09 1013.64 1014.05 1014.31 1014.44 1014.50 1014.53 1014.59 1014.71 1014.90 1015.14 1015.39 1015.62 1015.78 1015.87 1015.89 1015.88 1015.87 1015.91 1016.02 1016.21 1016.46 1016.75 1017.04 1017.28 1017.48 1017.61 1017.70 1017.78 1017.87 1017.99 1018.15 1018.33 1018.52 1018.68 1018.82
1010.76 1010.89 1010.87 1010.74 1010.53 1010.32 1010.18 1010.16 1010.31 1010.63 1011.11 1011.69 1012.31 1012.89 1013.40 1013.79 1014.06 1014.23 1014.34 1014.45 1014.59 1014.78 1015.02 1015.29 1015.55 1015.78 1015.93 1016.01 1016.03 1016.02 1016.03 1016.09 1016.22 1016.44 1016.71 1017.01 1017.30 1017.54 1017.72 1017.83 1017.90 1017.95 1018.02 1018.14 1018.30 1018.49 1018.71 1018.91 1019.09
1011.36 1011.43 1011.35 1011.16 1010.90 1010.65 1010.46 1010.38 1010.46 1010.71 1011.10 1011.58 1012.11 1012.62 1013.08 1013.46 1013.74 1013.96 1014.15 1014.33 1014.55 1014.80 1015.09 1015.39 1015.67 1015.90 1016.06 1016.14 1016.17 1016.18 1016.21 1016.30 1016.45 1016.68 1016.96 1017.26 1017.55 1017.78 1017.94 1018.04 1018.10 1018.14 1018.21 1018.32 1018.49 1018.70 1018.94 1019.18 1019.39
1011.96 1012.00 1011.89 1011.66 1011.38 1011.09 1010.85 1010.71 1010.70 1010.84 1011.10 1011.46 1011.87 1012.30 1012.71 1013.08 1013.39 1013.67 1013.93 1014.20 1014.48 1014.80 1015.13 1015.45 1015.74 1015.98 1016.15 1016.25 1016.30 1016.34 1016.40 1016.51 1016.68 1016.92 1017.20 1017.49 1017.75 1017.97 1018.13 1018.23 1018.28 1018.33 1018.41 1018.53 1018.70 1018.93 1019.19 1019.44 1019.67
1012.50 1012.53 1012.42 1012.20 1011.91 1011.60 1011.32 1011.11 1010.99 1010.99 1011.11 1011.33 1011.62 1011.96 1012.32 1012.67 1013.02 1013.36 1013.70 1014.04 1014.39 1014.75 1015.11 1015.45 1015.75 1016.00 1016.18 1016.31 1016.40 1016.48 1016.57 1016.70 1016.89 1017.12 1017.38 1017.65 1017.90 1018.10 1018.26 1018.36 1018.43 1018.50 1018.59 1018.73 1018.91 1019.14 1019.40 1019.66 1019.89
1012.95 1012.98 1012.89 1012.70 1012.44 1012.13 1011.82 1011.53 1011.31 1011.17 1011.13 1011.19 1011.35 1011.59 1011.89 1012.24 1012.62 1013.02 1013.42 1013.83 1014.23 1014.63 1015.01 1015.36 1015.67 1015.93 1016.15 1016.31 1016.45 1016.57 1016.69 1016.85 1017.03 1017.24 1017.48 1017.72 1017.94 1018.14 1018.29 1018.41 1018.51 1018.61 1018.73 1018.88 1019.07 1019.30 1019.55 1019.79 1020.02
1013.29 1013.34 1013.30 1013.16 1012.94 1012.66 1012.33 1011.98 1011.64 1011.35 1011.14 1011.04 1011.05 1011.19 1011.43 1011.76 1012.15 1012.59 1013.05 1013.51 1013.96 1014.39 1014.78 1015.15 1015.47 1015.76 1016.01 1016.23 1016.41 1016.58 1016.75 1016.92 1017.10 1017.29 1017.49 1017.69 1017.88 1018.06 1018.23 1018.37 1018.51 1018.64 1018.79 1018.96 1019.16 1019.38 1019.61 1019.83 1020.04
1013.53 1013.61 1013.63 1013.57 1013.42 1013.18 1012.84 1012.43 1011.99 1011.55 1011.16 1010.88 1010.73 1010.74 1010.90 1011.18 1011.58 1012.05 1012.54 1013.04 1013.53 1013.98 1014.40 1014.78 1015.13 1015.46 1015.76 1016.03 1016.29 1016.51 1016.72 1016.90 1017.08 1017.24 1017.40 1017.56 1017.72 1017.88 1018.05 1018.22 1018.40 1018.58 1018.77 1018.96 1019.16 1019.36 1019.57 1019.77 1019.96
1013.68 1013.81 1013.91 1013.95 1013.89 1013.70 1013.37 1012.92 1012.36 1011.77 1011.20 1010.72 1010.39 1010.25 1010.29 1010.52 1010.88 1011.35 1011.87 1012.40 1012.91 1013.39 1013.83 1014.25 1014.64 1015.02 1015.38 1015.73 1016.05 1016.34 1016.59 1016.79 1016.96 1017.09 1017.21 1017.32 1017.45 1017.60 1017.78 1017.98 1018.19 1018.42 1018.64 1018.86 1019.06 1019.26 1019.44 1019.61 1019.78
1013.78 1013.97 1014.17 1014.32 1014.37 1014.25 1013.94 1013.44 1012.78 1012.02 1011.26 1010.58 1010.06 1009.74 1009.64 1009.77 1010.08 1010.53 1011.05 1011.59 1012.13 1012.63 1013.11 1013.57 1014.01 1014.45 1014.89 1015.32 1015.72 1016.07 1016.36 1016.59 1016.75 1016.85 1016.93 1017.00 1017.10 1017.23 1017.41 1017.64 1017.89 1018.16 1018.42 1018.66 1018.87 1019.05 1019.21 1019.36 1019.51
1013.85 1014.13 1014.45 1014.72 1014.87 1014.83 1014.54 1014.00 1013.24 1012.33 1011.38 1010.49 1009.76 1009.25 1009.01 1009.02 1009.25 1009.65 1010.15 1010.70 1011.25 1011.79 1012.30 1012.80 1013.30 1013.81 1014.32 1014.82 1015.29 1015.71 1016.04 1016.29 1016.44 1016.53 1016.57 1016.61 1016.68 1016.79 1016.98 1017.22 1017.51 1017.81 1018.10 1018.36 1018.58 1018.76 1018.90 1019.02 1019.15
1013.92 1014.30 1014.73 1015.13 1015.38 1015.41 1015.15 1014.57 1013.73 1012.68 1011.56 1010.48 1009.55 1008.86 1008.45 1008.34 1008.48 1008.82 1009.30 1009.83 1010.39 1010.95 1011.49 1012.03 1012.58 1013.14 1013.71 1014.28 1014.80 1015.27 1015.64 1015.90 1016.05 1016.12 1016.14 1016.15 1016.20 1016.30 1016.48 1016.74 1017.05 1017.38 1017.69 1017.97 1018.19 1018.36 1018.48 1018.59 1018.70
1013.98 1014.46 1015.01 1015.51 1015.86 1015.95 1015.71 1015.12 1014.21 1013.06 1011.80 1010.56 1009.47 1008.62 1008.08 1007.84 1007.89 1008.16 1008.59 1009.10 1009.66 1010.22 1010.77 1011.34 1011.91 1012.50 1013.11 1013.71 1014.27 1014.77 1015.16 1015.43 1015.59 1015.65 1015.66 1015.66 1015.68 1015.78 1015.96 1016.22 1016.53 1016.87 1017.20 1017.48 1017.70 1017.85 1017.96 1018.05 1018.14
1014.04 1014.60 1015.23 1015.82 1016.24 1016.38 1016.16 1015.57 1014.63 1013.42 1012.08 1010.74 1009.54 1008.58 1007.93 1007.59 1007.55 1007.76 1008.13 1008.61 1009.14 1009.68 1010.22 1010.78 1011.35 1011.94 1012.55 1013.15 1013.73 1014.23 1014.63 1014.91 1015.07 1015.13 1015.14 1015.13 1015.15 1015.24 1015.41 1015.66 1015.98 1016.31 1016.63 1016.90 1017.11 1017.25 1017.34 1017.40 1017.48
1014.08 1014.69 1015.36 1015.99 1016.44 1016.61 1016.42 1015.85 1014.92 1013.72 1012.36 1011.00 1009.76 1008.75 1008.04 1007.64 1007.53 1007.67 1007.98 1008.41 1008.88 1009.38 1009.88 1010.39 1010.93 1011.48 1012.06 1012.63 1013.18 1013.67 1014.06 1014.34 1014.51 1014.59 1014.60 1014.60 1014.62 1014.70 1014.86 1015.10 1015.39 1015.70 1016.00 1016.25 1016.43 1016.55 1016.62 1016.67 1016.73
1014.07 1014.68 1015.35 1015.96 1016.41 1016.59 1016.42 1015.89 1015.02 1013.88 1012.60 1011.29 1010.10 1009.11 1008.39 1007.96 1007.81 1007.89 1008.14 1008.49 1008.89 1009.31 1009.74 1010.18 1010.64 1011.13 1011.63 1012.15 1012.65 1013.10 1013.48 1013.76 1013.94 1014.03 1014.06 1014.08 1014.11 1014.19 1014.34 1014.55 1014.81 1015.08 1015.33 1015.54 1015.69 1015.78 1015.83 1015.87 1015.92
1014.01 1014.57 1015.16 1015.71 1016.10 1016.26 1016.12 1015.66 1014.89 1013.88 1012.74 1011.57 1010.50 1009.60 1008.93 1008.51 1008.34 1008.37 1008.54 1008.80 1009.11 1009.43 1009.76 1010.10 1010.46 1010.85 1011.27 1011.71 1012.15 1012.55 1012.90 1013.17 1013.36 1013.47 1013.54 1013.57 1013.62 1013.70 1013.83 1014.01 1014.22 1014.44 1014.65 1014.81 1014.92 1014.98 1015.01 1015.03 1015.08
1013.91 1014.35 1014.81 1015.24 1015.55 1015.67 1015.55 1015.16 1014.54 1013.71 1012.77 1011.81 1010.91 1010.15 1009.58 1009.21 1009.03 1009.00 1009.10 1009.26 1009.45 1009.66 1009.87 1010.10 1010.35 1010.64 1010.96 1011.31 1011.68 1012.03 1012.35 1012.61 1012.81 1012.95 1013.04 1013.10 1013.16 1013.24 1013.35 1013.49 1013.65 1013.81 1013.95 1014.06 1014.13 1014.16 1014.17 1014.19 1014.24
Thickness
5860 5865 5865 5859 5842 5818 5798 5800 5806 5801 5800 5803 5804 5800 5790 5782 5778 5764 5779 5787 5787 5785 5782 5778 5777 5776 5775 5775 5775 5774 5774 5773 5772 5772 5771 5770 5769 5768 5767 5765 5764 5763 5762 5761 5760 5760 5759 5757 5756
5870 5869 5864 5856 5830 5801 5793 5804 5801 5800 5804 5807 5803 5798 5791 5782 5785 5781 5784 5785 5787 5785 5782 5778 5775 5774 5774 5773 5773 5773 5772 5771 5770 5769 5769 5768 5766 5765 5764 5763 5762 5761 5760 5759 5758 5757 5756 5755 5754
5872 5871 5860 5846 5820 5803 5796 5805 5804 5806 5811 5807 5799 5797 5789 5779 5783 5784 5786 5787 5787 5785 5781 5775 5773 5773 5772 5772 5771 5771 5770 5769 5768 5767 5766 5765 5764 5762 5761 5760 5760 5759 5758 5757 5756 5755 5754 5753 5752
5873 5868 5859 5836 5810 5812 5812 5811 5812 5808 5807 5807 5802 5791 5788 5788 5789 5788 5788 5788 5787 5785 5781 5775 5772 5771 5771 5770 5769 5768 5768 5767 5766 5765 5764 5762 5761 5760 5759 5758 5757 5756 5756 5755 5754 5753 5752 5751 5750
5876 5863 5842 5822 5812 5817 5821 5820 5818 5808 5804 5803 5801 5786 5780 5786 5791 5790 5788 5788 5787 5785 5781 5775 5770 5769 5769 5768 5767 5766 5766 5765 5763 5762 5761 5760 5759 5757 5757 5756 5755 5754 5754 5753 5752 5751 5750 5749 5748
5867 5861 5833 5814 5811 5817 5822 5823 5819 5809 5804 5802 5799 5788 5779 5786 5788 5788 5788 5788 5788 5785 5781 5774 5769 5768 5767 5766 5765 5764 5763 5762 5761 5760 5759 5758 5756 5755 5755 5754 5753 5753 5752 5751 5750 5750 5749 5748 5747
5860 5851 5831 5823 5815 5815 5819 5826 5819 5811 5803 5803 5805 5790 5781 5784 5788 5789 5787 5787 5786 5784 5782 5777 5773 5769 5766 5765 5763 5762 5761 5760 5759 5758 5757 5756 5754 5753 5753 5752 5752 5751 5750 5749 5749 5748 5747 5746 5745
5870 5856 5835 5829 5821 5816 5825 5826 5823 5816 5806 5811 5809 5793 5782 5785 5790 5789 5786 5785 5783 5782 5781 5778 5774 5772 5770 5766 5762 5761 5759 5758 5757 5756 5755 5754 5753 5752 5752 5751 5750 5750 5749 5748 5747 5746 5746 5745 5744
5871 5850 5831 5831 5827 5823 5829 5823 5822 5825 5814 5810 5810 5806 5800 5794 5791 5786 5782 5781 5779 5778 5778 5778 5775 5773 5771 5769 5763 5761 5759 5757 5756 5755 5754 5755 5756 5755 5753 5751 5749 5748 5748 5747 5746 5745 5745 5745 5744
5863 5842 5835 5842 5843 5835 5831 5827 5823 5818 5808 5803 5801 5801 5799 5794 5789 5783 5780 5779 5777 5775 5776 5776 5774 5772 5771 5769 5764 5764 5762 5759 5758 5757 5756 5756 5754 5754 5753 5749 5748 5747 5747 5746 5746 5746 5746 5747 5748
5858 5843 5844 5846 5848 5844 5834 5829 5830 5819 5806 5807 5801 5797 5795 5792 5788 5784 5783 5782 5778 5777 5776 5774 5772 5770 5771 5768 5766 5764 5762 5759 5758 5756 5755 5754 5754 5754 5753 5752 5750 5748 5748 5749 5747 5749 5750 5749 5748
5851 5847 5849 5848 5848 5844 5837 5832 5826 5822 5817 5820 5814 5806 5798 5792 5789 5787 5783 5782 5780 5778 5776 5775 5772 5769 5768 5768 5766 5764 5763 5761 5759 5756 5756 5755 5754 5753 5753 5752 5752 5751 5750 5749 5750 5748 5748 5748 5748
5846 5845 5848 5850 5848 5845 5839 5832 5826 5821 5824 5823 5815 5806 5800 5796 5793 5791 5789 5786 5782 5778 5777 5774 5772 5769 5767 5765 5765 5765 5763 5762 5758 5756 5755 5754 5755 5754 5753 5751 5750 5752 5751 5750 5749 5749 5747 5748 5748
5846 5846 5846 5847 5844 5841 5834 5829 5826 5820 5824 5817 5810 5804 5802 5798 5795 5792 5788 5785 5782 5780 5778 5776 5772 5769 5766 5765 5763 5763 5762 5759 5758 5757 5755 5753 5754 5752 5752 5750 5750 5751 5750 5750 5749 5749 5748 5749 5748
5849 5840 5838 5842 5841 5840 5836 5820 5822 5825 5823 5814 5809 5806 5803 5800 5797 5793 5790 5787 5785 5783 5780 5776 5773 5771 5767 5765 5764 5764 5762 5761 5759 5757 5754 5753 5753 5752 5751 5752 5751 5751 5750 5749 5748 5748 5749 5749 5749
5842 5834 5825 5833 5839 5839 5831 5815 5823 5829 5822 5813 5810 5807 5803 5800 5799 5797 5795 5791 5789 5785 5781 5778 5777 5773 5769 5766 5764 5765 5763 5761 5759 5757 5755 5753 5752 5751 5751 5752 5752 5749 5750 5750 5749 5750 5750 5749 5749
5828 5823 5823 5825 5837 5836 5830 5821 5824 5829 5823 5815 5812 5809 5805 5802 5800 5800 5799 5795 5792 5788 5783 5780 5778 5775 5771 5768 5765 5764 5761 5760 5759 5758 5756 5754 5753 5752 5752 5752 5750 5750 5750 5750 5751 5750 5750 5748 5748
5820 5824 5823 5821 5831 5831 5826 5824 5825 5827 5824 5819 5816 5813 5808 5805 5803 5804 5802 5800 5796 5791 5787 5783 5779 5776 5773 5770 5766 5764 5763 5762 5760 5759 5757 5755 5754 5752 5752 5751 5750 5750 5750 5749 5749 5747 5748 5748 5748
5830 5826 5821 5824 5832 5826 5822 5823 5825 5826 5823 5820 5818 5815 5811 5809 5811 5809 5805 5803 5799 5794 5789 5785 5782 5778 5774 5771 5768 5765 5763 5763 5762 5761 5758 5756 5755 5754 5752 5753 5751 5750 5750 5749 5750 5749 5748 5749 5749
5822 5817 5817 5819 5826 5823 5820 5821 5828 5827 5823 5824 5820 5817 5816 5812 5811 5809 5806 5804 5801 5796 5792 5788 5784 5782 5778 5775 5772 5769 5767 5766 5765 5763 5760 5758 5756 5755 5755 5753 5752 5751 5750 5749 5748 5747 5748 5749 5750
5813 5815 5815 5812 5816 5821 5816 5812 5818 5824 5826 5826 5825 5823 5822 5818 5814 5811 5808 5806 5804 5800 5796 5794 5789 5786 5782 5779 5775 5771 5768 5766 5765 5763 5762 5760 5758 5757 5755 5754 5753 5752 5752 5751 5749 5748 5747 5747 5749
5803 5819 5818 5812 5805 5807 5810 5800 5816 5822 5819 5821 5823 5824 5823 5823 5820 5817 5813 5809 5807 5805 5803 5798 5793 5789 5785 5781 5777 5773 5769 5766 5767 5766 5765 5762 5760 5759 5757 5755 5754 5752 5753 5751 5750 5752 5749 5747 5746
5811 5817 5814 5811 5807 5805 5807 5801 5815 5822 5815 5821 5825 5827 5828 5828 5825 5822 5819 5815 5813 5810 5806 5802 5796 5791 5787 5783 5780 5775 5772 5771 5771 5769 5766 5763 5763 5760 5759 5757 5755 5753 5753 5751 5750 5749 5749 5749 5747
5807 5805 5802 5805 5805 5785 5799 5796 5803 5820 5819 5825 5831 5832 5832 5831 5829 5826 5824 5820 5815 5813 5809 5805 5798 5793 5790 5785 5782 5777 5774 5771 5769 5767 5766 5764 5764 5763 5761 5759 5756 5754 5753 5752 5750 5749 5749 5748 5747
5798 5789 5775 5771 5774 5782 5801 5794 5804 5823 5829 5829 5830 5834 5835 5834 5831 5827 5823 5819 5816 5812 5809 5806 5800 5794 5792 5788 5784 5780 5777 5773 5769 5768 5768 5766 5766 5764 5762 5761 5757 5756 5754 5752 5751 5749 5749 5748 5746
5792 5795 5779 5767 5771 5785 5788 5789 5809 5825 5829 5832 5832 5834 5835 5835 5834 5830 5826 5822 5818 5815 5811 5807 5802 5797 5794 5790 5786 5783 5780 5777 5775 5772 5772 5770 5768 5768 5765 5761 5758 5756 5754 5753 5751 5751 5749 5748 5746
5785 5792 5807 5792 5786 5781 5789 5795 5807 5820 5820 5824 5827 5829 5830 5833 5833 5831 5828 5825 5821 5817 5813 5810 5804 5799 5795 5792 5788 5785 5782 5780 5778 5775 5772 5772 5770 5769 5765 5762 5759 5757 5755 5753 5751 5750 5748 5747 5746
5796 5796 5788 5781 5765 5764 5778 5784 5794 5802 5809 5816 5820 5823 5827 5829 5830 5828 5826 5824 5822 5819 5815 5812 5807 5801 5797 5793 5790 5787 5783 5781 5778 5775 5773 5771 5770 5767 5765 5762 5760 5757 5754 5752 5750 5749 5747 5745 5744
5777 5781 5784 5784 5782 5771 5768 5782 5808 5806 5810 5811 5816 5820 5822 5823 5825 5825 5823 5822 5820 5817 5814 5809 5805 5800 5796 5793 5790 5787 5784 5782 5779 5775 5773 5770 5768 5766 5763 5761 5759 5756 5754 5751 5749 5747 5746 5743 5742
5783 5782 5779 5768 5764 5774 5779 5784 5809 5809 5810 5810 5811 5814 5817 5819 5821 5821 5820 5818 5815 5812 5810 5807 5804 5799 5796 5793 5789 5786 5783 5781 5778 5775 5772 5769 5766 5765 5763 5761 5758 5755 5753 5751 5748 5745 5744 5742 5739